When you browse on this site, cookies collect data to enhance your experience and personalize the content and advertising you see.
Visit our Privacy Policy to learn more. By continuing to use the site, you agree to this use of cookies and data.
  • In Austria
  • List of Countries
  • For 7 days
  • Water Temperature
  • Weather Map
  • News
  • Weather Widgets
  • user-avatar
    Login

    Hourly Weather Djelfa

    Today, 29 May, Friday

    Time Temperature Precipitation Wind Pressure Humidity
    00:00 +19°C° 0.3 mm 2 mps 667 mmHg 61%
    01:00 +19°C° 0.2 mm 2 mps 667 mmHg 60%
    02:00 +19°C° 0.2 mm 3 mps 667 mmHg 59%
    03:00 +19°C° 0.2 mm 3 mps 666 mmHg 58%
    04:00 +19°C° 0.3 mm 4 mps 666 mmHg 58%
    05:00 +19°C° 0.3 mm 5 mps 666 mmHg 57%
    06:00 +17°C° 0.3 mm 5 mps 666 mmHg 57%
    07:00 +20°C° 0.2 mm 6 mps 666 mmHg 52%
    08:00 +21°C° 0.2 mm 6 mps 666 mmHg 48%
    09:00 +22°C° 0.2 mm 7 mps 667 mmHg 43%
    10:00 +23°C° 0.2 mm 7 mps 666 mmHg 41%
    11:00 +23°C° 0.2 mm 6 mps 666 mmHg 40%
    12:00 +24°C° 0.2 mm 6 mps 665 mmHg 38%
    13:00 +24°C° 0.2 mm 6 mps 665 mmHg 37%
    14:00 +26°C° 0.2 mm 6 mps 664 mmHg 35%
    15:00 +26°C° 0.2 mm 6 mps 664 mmHg 34%
    16:00 +26°C° 0.2 mm 6 mps 664 mmHg 37%
    17:00 +24°C° 0.2 mm 7 mps 663 mmHg 40%
    18:00 +23°C° 0.2 mm 7 mps 663 mmHg 43%
    19:00 +22°C° 0.1 mm 7 mps 663 mmHg 49%
    20:00 +20°C° 0.1 mm 8 mps 663 mmHg 56%
    21:00 +18°C° 0.1 mm 9 mps 663 mmHg 63%
    22:00 +18°C° 0.2 mm 7 mps 663 mmHg 63%
    23:00 +19°C° 0.2 mm 5 mps 663 mmHg 63%

    Tomorrow, 30 May, Saturday

    Time Temperature Precipitation Wind Pressure Humidity
    00:00 +19°C° 0.2 mm 4 mps 663 mmHg 63%
    01:00 +19°C° 0 mm 4 mps 663 mmHg 63%
    02:00 +19°C° 0 mm 4 mps 663 mmHg 64%
    03:00 +18°C° 0 mm 4 mps 662 mmHg 64%
    04:00 +18°C° 0 mm 4 mps 663 mmHg 66%
    05:00 +18°C° 0 mm 4 mps 663 mmHg 68%
    06:00 +19°C° 0 mm 4 mps 663 mmHg 69%
    07:00 +20°C° 0 mm 4 mps 663 mmHg 62%
    08:00 +21°C° 0 mm 4 mps 663 mmHg 56%
    09:00 +23°C° 0 mm 4 mps 664 mmHg 49%
    10:00 +25°C° 0 mm 4 mps 664 mmHg 44%
    11:00 +25°C° 0 mm 4 mps 664 mmHg 40%
    12:00 +26°C° 0 mm 4 mps 664 mmHg 35%
    13:00 +27°C° 0 mm 4 mps 664 mmHg 33%
    14:00 +27°C° 0 mm 4 mps 664 mmHg 30%
    15:00 +28°C° 0 mm 4 mps 663 mmHg 27%
    16:00 +27°C° 0 mm 4 mps 663 mmHg 28%
    17:00 +27°C° 0 mm 4 mps 663 mmHg 28%
    18:00 +26°C° 0 mm 4 mps 663 mmHg 28%
    19:00 +25°C° 0 mm 4 mps 663 mmHg 31%
    20:00 +23°C° 0 mm 4 mps 664 mmHg 34%
    21:00 +22°C° 0 mm 4 mps 664 mmHg 37%
    22:00 +22°C° 0 mm 4 mps 664 mmHg 40%
    23:00 +21°C° 0 mm 4 mps 664 mmHg 43%

    Day after tomorrow, 31 May, Sunday

    Time Temperature Precipitation Wind Pressure Humidity
    00:00 +21°C° 0 mm 4 mps 663 mmHg 45%
    01:00 +20°C° 0 mm 4 mps 663 mmHg 48%
    02:00 +20°C° 0 mm 4 mps 663 mmHg 51%
    03:00 +20°C° 0 mm 4 mps 663 mmHg 54%
    04:00 +20°C° 0 mm 4 mps 663 mmHg 54%
    05:00 +21°C° 0 mm 5 mps 663 mmHg 54%
    06:00 +21°C° 0 mm 5 mps 664 mmHg 54%
    07:00 +22°C° 0 mm 6 mps 664 mmHg 50%
    08:00 +23°C° 0 mm 8 mps 664 mmHg 47%
    09:00 +26°C° 0 mm 9 mps 665 mmHg 43%
    10:00 +27°C° 0 mm 8 mps 665 mmHg 39%
    11:00 +28°C° 0 mm 8 mps 665 mmHg 35%
    12:00 +30°C° 0 mm 7 mps 665 mmHg 31%
    13:00 +29°C° 0.5 mm 7 mps 664 mmHg 33%
    14:00 +29°C° 0.5 mm 7 mps 663 mmHg 35%
    15:00 +29°C° 0.5 mm 7 mps 662 mmHg 37%
    16:00 +29°C° 0 mm 7 mps 663 mmHg 32%
    17:00 +30°C° 0 mm 6 mps 663 mmHg 28%
    18:00 +32°C° 0 mm 6 mps 664 mmHg 24%
    19:00 +28°C° 0 mm 6 mps 664 mmHg 35%
    20:00 +26°C° 0 mm 6 mps 664 mmHg 45%
    21:00 +22°C° 0 mm 5 mps 664 mmHg 56%
    22:00 +22°C° 0 mm 5 mps 664 mmHg 55%
    23:00 +22°C° 0 mm 4 mps 664 mmHg 55%

    1 June, Monday

    Time Temperature Precipitation Wind Pressure Humidity
    00:00 +22°C° 0 mm 4 mps 664 mmHg 55%
    01:00 +22°C° 0 mm 3 mps 664 mmHg 53%
    02:00 +22°C° 0 mm 3 mps 664 mmHg 50%
    03:00 +23°C° 0 mm 2 mps 664 mmHg 48%
    04:00 +23°C° 0 mm 2 mps 664 mmHg 47%
    05:00 +23°C° 0 mm 2 mps 664 mmHg 47%
    06:00 +23°C° 0 mm 2 mps 664 mmHg 47%
    07:00 +24°C° 0 mm 3 mps 664 mmHg 42%
    08:00 +25°C° 0 mm 5 mps 665 mmHg 38%
    09:00 +27°C° 0 mm 6 mps 665 mmHg 34%
    10:00 +28°C° 0 mm 6 mps 665 mmHg 30%
    11:00 +29°C° 0 mm 6 mps 665 mmHg 26%
    12:00 +30°C° 0 mm 7 mps 665 mmHg 22%
    13:00 +30°C° 0 mm 7 mps 665 mmHg 21%
    14:00 +30°C° 0 mm 7 mps 665 mmHg 20%
    15:00 +30°C° 0 mm 7 mps 665 mmHg 18%
    16:00 +30°C° 0 mm 7 mps 665 mmHg 19%
    17:00 +29°C° 0 mm 7 mps 665 mmHg 20%
    18:00 +29°C° 0 mm 7 mps 665 mmHg 20%
    19:00 +27°C° 0 mm 6 mps 665 mmHg 24%
    20:00 +26°C° 0 mm 4 mps 665 mmHg 27%
    21:00 +25°C° 0 mm 3 mps 665 mmHg 31%
    22:00 +24°C° 0 mm 3 mps 664 mmHg 32%
    23:00 +22°C° 0 mm 3 mps 664 mmHg 34%

    2 June, Tuesday

    Time Temperature Precipitation Wind Pressure Humidity
    00:00 +22°C° 0 mm 3 mps 664 mmHg 36%
    01:00 +21°C° 0 mm 2 mps 663 mmHg 37%
    02:00 +20°C° 0 mm 2 mps 663 mmHg 38%
    03:00 +20°C° 0 mm 2 mps 663 mmHg 39%
    04:00 +20°C° 0 mm 2 mps 663 mmHg 39%
    05:00 +20°C° 0 mm 2 mps 664 mmHg 40%
    06:00 +21°C° 0 mm 2 mps 664 mmHg 40%
    07:00 +22°C° 0 mm 3 mps 664 mmHg 36%
    08:00 +24°C° 0 mm 3 mps 665 mmHg 31%
    09:00 +26°C° 0 mm 3 mps 665 mmHg 27%
    10:00 +27°C° 0 mm 3 mps 665 mmHg 24%
    11:00 +28°C° 0 mm 3 mps 665 mmHg 21%
    12:00 +29°C° 0 mm 3 mps 665 mmHg 19%
    13:00 +29°C° 0 mm 4 mps 665 mmHg 17%
    14:00 +30°C° 0 mm 4 mps 665 mmHg 16%
    15:00 +30°C° 0 mm 5 mps 664 mmHg 14%
    16:00 +30°C° 0 mm 4 mps 664 mmHg 15%
    17:00 +30°C° 0 mm 4 mps 664 mmHg 15%
    18:00 +30°C° 0 mm 3 mps 663 mmHg 15%
    19:00 +28°C° 0 mm 3 mps 663 mmHg 17%
    20:00 +27°C° 0 mm 3 mps 664 mmHg 19%
    21:00 +26°C° 0 mm 3 mps 664 mmHg 21%
    22:00 +25°C° 0 mm 3 mps 663 mmHg 23%
    23:00 +25°C° 0 mm 3 mps 663 mmHg 24%

    3 June, Wednesday

    Time Temperature Precipitation Wind Pressure Humidity
    00:00 +24°C° 0 mm 3 mps 663 mmHg 25%
    01:00 +24°C° 0 mm 3 mps 662 mmHg 28%
    02:00 +22°C° 0 mm 3 mps 662 mmHg 31%
    03:00 +22°C° 0 mm 4 mps 662 mmHg 34%
    04:00 +22°C° 0 mm 4 mps 662 mmHg 35%
    05:00 +22°C° 0 mm 4 mps 662 mmHg 36%
    06:00 +22°C° 0 mm 5 mps 662 mmHg 37%
    07:00 +24°C° 0 mm 6 mps 662 mmHg 34%
    08:00 +26°C° 0 mm 8 mps 663 mmHg 32%
    09:00 +27°C° 0 mm 10 mps 663 mmHg 30%
    10:00 +29°C° 0 mm 9 mps 663 mmHg 28%
    11:00 +31°C° 0 mm 9 mps 663 mmHg 27%
    12:00 +32°C° 0 mm 9 mps 663 mmHg 25%
    13:00 +33°C° 0 mm 9 mps 662 mmHg 23%
    14:00 +33°C° 0 mm 10 mps 662 mmHg 22%
    15:00 +34°C° 0 mm 10 mps 661 mmHg 20%
    16:00 +33°C° 0.1 mm 9 mps 661 mmHg 22%
    17:00 +32°C° 0.1 mm 9 mps 661 mmHg 24%
    18:00 +32°C° 0.1 mm 8 mps 660 mmHg 26%
    19:00 +29°C° 0 mm 9 mps 660 mmHg 31%
    20:00 +27°C° 0 mm 9 mps 660 mmHg 36%
    21:00 +24°C° 0 mm 10 mps 660 mmHg 41%
    22:00 +23°C° 0 mm 9 mps 660 mmHg 43%
    23:00 +22°C° 0 mm 8 mps 660 mmHg 44%
    Show more